Lebanon, NH

4:03 AM EDT on August 26, 2019 (GMT -0400)
Lebanon Municipal

Weather History for KLEB - July, 2019

Change the Weather History Date:

Friday, July 19, 2019

  Actual Average Record
Temperature  
Mean Temperature 78 °F -  
Max Temperature 91 °F 83 °F 95 °F (1953)
Min Temperature 64 °F 59 °F 42 °F (1944)
Cooling Degree Days 12    
Growing Degree Days 28 (Base 50)    
Moisture  
Dew Point 65 °F    
Average Humidity 70    
Maximum Humidity 87    
Minimum Humidity 50    
Precipitation  
Precipitation 0.00 in - - ()
Sea Level Pressure  
Sea Level Pressure 29.81 in    
Wind  
Wind Speed 4 mph (SSW)    
Max Wind Speed 13 mph    
Max Gust Speed -    
Visibility 10 miles    
Events      
Averages and records for this station are not official NWS values.
T = Trace of Precipitation, MM = Missing Value Source: NWS Daily Summary

Daily Weather History Graph

Daily Weather History Graph

Search for Another Location

Airport or City:

Astronomy

Jul. 19, 2019 Rise Set
Actual Time 5:24 AM EDT 8:25 PM EDT
Civil Twilight 4:50 AM EDT 8:59 PM EDT
Nautical Twilight 4:06 AM EDT 9:43 PM EDT
Astronomical Twilight 3:14 AM EDT 10:34 PM EDT
Moon 10:18 PM EDT (7/19) 7:51 AM EDT (7/19)
Length of Visible Light 16h 08m
Length of Day
15h 00m
Waning Gibbous, 93% of the Moon is Illuminated
Jul 19
Waning Gibbous
Jul 24
Last Quarter
Jul 31
New
Aug 7
First Quarter
Aug 15
Full

Hourly Weather History & Observations

Time (EDT) Temp. Heat Index Dew Point Humidity Pressure Visibility Wind Dir Wind Speed Gust Speed Precip Events Conditions
12:53 AM 64.0 °F - 59.0 °F 84% 29.90 in 10.0 mi ENE 3.5 mph - N/A   Clear
1:53 AM 64.0 °F - 57.9 °F 80% 29.88 in 10.0 mi NE 3.5 mph - N/A   Partly Cloudy
2:53 AM 64.9 °F - 57.9 °F 78% 29.88 in 10.0 mi ENE 3.5 mph - N/A   Overcast
3:53 AM 66.0 °F - 60.1 °F 81% 29.86 in 10.0 mi Calm Calm - N/A   Overcast
4:53 AM 64.9 °F - 59.0 °F 81% 29.87 in 10.0 mi Calm Calm - N/A   Overcast
5:36 AM 64.9 °F - 59.0 °F 81% 29.89 in 10.0 mi Calm Calm - N/A   Overcast
5:53 AM 64.9 °F - 60.1 °F 84% 29.86 in 10.0 mi Calm Calm - N/A   Overcast
6:02 AM 66.0 °F - 59.0 °F 78% 29.89 in 10.0 mi Calm Calm - N/A   Mostly Cloudy
6:19 AM 64.9 °F - 59.0 °F 81% 29.89 in 10.0 mi Calm Calm - N/A   Mostly Cloudy
6:38 AM 66.0 °F - 60.1 °F 81% 29.89 in 10.0 mi Calm Calm - N/A   Scattered Clouds
6:53 AM 66.9 °F - 60.1 °F 79% 29.85 in 10.0 mi Calm Calm - N/A   Clear
7:51 AM 71.6 °F - 60.8 °F 69% 29.88 in 10.0 mi South 6.9 mph - N/A   Mostly Cloudy
7:53 AM 71.1 °F - 60.1 °F 68% 29.85 in 10.0 mi South 8.1 mph - N/A   Mostly Cloudy
8:41 AM 73.0 °F - 62.1 °F 68% 29.87 in 10.0 mi South 5.8 mph - N/A   Scattered Clouds
8:53 AM 73.9 °F - 62.1 °F 66% 29.84 in 10.0 mi South 4.6 mph - N/A   Partly Cloudy
9:53 AM 78.1 °F - 64.9 °F 64% 29.82 in 10.0 mi SW 8.1 mph - N/A   Clear
10:53 AM 81.0 °F 83.3 °F 66.9 °F 62% 29.80 in 10.0 mi SW 5.8 mph - N/A   Clear
11:53 AM 84.0 °F 87.0 °F 68.0 °F 58% 29.78 in 10.0 mi South 11.5 mph - N/A   Clear
12:53 PM 87.1 °F 92.0 °F 70.0 °F 57% 29.76 in 10.0 mi SSW 12.7 mph - N/A   Clear
1:53 PM 89.1 °F 95.0 °F 71.1 °F 55% 29.74 in 10.0 mi South 10.4 mph - N/A   Mostly Cloudy
2:53 PM 89.1 °F 95.0 °F 71.1 °F 55% 29.74 in 10.0 mi WSW 6.9 mph - N/A   Mostly Cloudy
3:53 PM 91.0 °F 96.6 °F 70.0 °F 50% 29.73 in 10.0 mi SW 11.5 mph - N/A   Mostly Cloudy
4:53 PM 90.0 °F 95.4 °F 70.0 °F 52% 29.73 in 10.0 mi SW 10.4 mph - N/A   Mostly Cloudy
5:53 PM 90.0 °F 96.4 °F 71.1 °F 54% 29.72 in 10.0 mi Variable 6.9 mph - N/A   Clear
6:53 PM 89.1 °F 95.0 °F 71.1 °F 55% 29.72 in 10.0 mi WSW 5.8 mph - N/A   Clear
7:53 PM 82.9 °F 88.8 °F 73.0 °F 72% 29.72 in 10.0 mi South 5.8 mph - N/A   Clear
8:53 PM 82.9 °F 87.5 °F 71.1 °F 67% 29.73 in 10.0 mi SSW 4.6 mph - N/A   Clear
9:53 PM 79.0 °F - 71.1 °F 77% 29.74 in 10.0 mi South 6.9 mph - N/A   Clear
10:53 PM 78.1 °F - 71.1 °F 79% 29.74 in 10.0 mi SSE 4.6 mph - N/A   Clear
11:53 PM 73.9 °F - 70.0 °F 87% 29.74 in 10.0 mi Calm Calm - N/A   Clear